Regional Weather Roundup
Issued by NWS

Home | Current Version | Previous Version | Graphics & Text | Print | Product List | Glossary On
Versions: 1 2 3 4 5 6 7 8 9 10 11 12 13 14 15 16 17 18 19 20 21 22 23 24 25 26 27
000
ASUS45 KBOU 221806
RWRCO

WEATHER ROUNDUP FOR COLORADO
NATIONAL WEATHER SERVICE DENVER/BOULDER CO
1200 PM MDT TUE APR 22 2014

NOTE: "FAIR" INDICATES FEW OR NO CLOUDS BELOW 12000 FEET WITH NO
SIGNIFICANT WEATHER AND/OR OBSTRUCTIONS TO VISIBILITY.

COZ001>005-013-030-031-221900-
...NORTHWEST COLORADO...

CITY           SKY/WX    TMP DP  RH WIND       PRES   REMARKS
CRAIG          PTSUNNY   69  34  27 SW29G38   29.91F
HAYDEN         PTSUNNY   66  30  26 SW24G32   29.96F
MEEKER         PTSUNNY   69  33  26 S13       29.93F
MOUNT WERNER   CLOUDY    46  19  34 S18G33    30.16F
STEAMBOAT SPGS CLOUDY    64  27  24 SW6       29.95F
WALDEN         PTSUNNY   57  28  33 SW14G26   30.03F
$$

COZ006>008-011-221900-
...WEST CENTRAL VALLEYS...

CITY           SKY/WX    TMP DP  RH WIND       PRES   REMARKS
GRAND JUNCTION MOSUNNY   75  31  19 S20G31    29.88F
MONTROSE       LGT RAIN  71  33  24 SW18G29   29.96F
EAGLE          PTSUNNY   57  30  35 CALM      30.01F
RIFLE          PTSUNNY   62  36  37 NW6       29.93F
DELTA          NOT AVBL
NUCLA          NOT AVBL
$$

COZ017>023-064>068-221900-
...SOUTHWEST COLORADO...

CITY           SKY/WX    TMP DP  RH WIND       PRES   REMARKS
DURANGO        MOSUNNY   66  33  29 MISG      30.10F
CORTEZ         MOSUNNY   73  30  20 SW15G28   30.03F
PAGOSA SPRINGS PTSUNNY   60  30  32 SW5       30.17F
TELLURIDE      CLOUDY    55  27  33 CALM      30.16F
WOLF CREEK PAS CLOUDY    36  30  80 SW17G29   30.33F
$$

COZ009-010-012-014-032>034-037-058>063-221900-
...CENTRAL COLORADO...

CITY           SKY/WX    TMP DP  RH WIND       PRES   REMARKS
ASPEN          PTSUNNY   58  30  34 S18       30.06F
BUENA VISTA    PTSUNNY   63  30  28 SE12G20   30.09F
COPPER MTN     PTSUNNY   45  21  39 S21G30    30.28F
BERTHOUD PASS  PTSUNNY   36  28  75 MISG      30.31F
COTTONWOOD PAS PTSUNNY   55  25  30 W5G24     30.19F
GUNNISON       PTSUNNY   61  28  29 S7        30.11F
KREMMLING      CLOUDY    59  27  29 W3        30.04F
LEADVILLE      PTSUNNY   49  22  34 SW14G23   30.17F
MONARCH PASS   PTSUNNY   41  25  52 SW36      30.38F
SALIDA         PTSUNNY   66  30  26 S12G22    30.14F
SUNLIGHT       CLOUDY    46  30  53 SW3       30.19F
WILKERSON PASS PTSUNNY   50  27  40 SW9G17    30.28F
$$

COZ069>075-221900-
...SAN LUIS VALLEY/SANGRE DE CRISTO MOUNTAINS...

CITY           SKY/WX    TMP DP  RH WIND       PRES   REMARKS
ALAMOSA        PTSUNNY   66  33  29 SW17G33   30.12F
LA VETA PASS   MOSUNNY   48  32  53 SW9G21    30.25F
SAGUACHE       MOSUNNY   63  32  31 S7G17     30.14F
$$

COZ035-036-038>040-221900-
...NORTHERN COLORADO FRONT RANGE...

CITY           SKY/WX    TMP DP  RH WIND       PRES   REMARKS
DENVER INTL AP PTSUNNY   75  29  18 S6        29.91F
DMNS CITY PARK   N/A     75  26  16 S9G15     29.89F
AURORA         PTSUNNY   73  28  19 SW6       29.93F
FRONT RANGE AP NOT AVBL
ERIE MUNI ARPT MOSUNNY   67  42  40 CALM      29.90F
BOULDER MUN AP MOSUNNY   66  41  39 CALM      29.90F
CENTENNIAL     PTSUNNY   74  27  17 SW14G22   29.93F
BROOMFIELD     PTSUNNY   72  36  26 NE7       29.92F
FORT COLLINS   PTSUNNY   66  43  42 CALM      29.91F
LONGMONT       NOT AVBL
$$

COZ041-046-047-076>085-087-088-221900-
...PIKES PEAK/PALMER DIVIDE AND SOUTHERN FOOTHILLS...

CITY           SKY/WX    TMP DP  RH WIND       PRES   REMARKS
COLO. SPRINGS  PTSUNNY   72  32  23 S20G29    29.99F
A. F. ACADEMY  MOSUNNY   65  37  34 S9        30.01F
ELLICOTT       NOT AVBL
FALCON         MOSUNNY   68  33  26 S15       30.04F
FORT CARSON    MOSUNNY   73  30  20 S21G26    29.97F
LIMON          MOSUNNY   70  40  33 S16G22    29.96F
MONUMENT HILL  MOSUNNY   68  30  24 SW15G21   30.02F
TRINIDAD       SUNNY     73  41  31 S22G31    30.02F
$$

COZ042>045-048>051-090-091-221900-
...NORTHEAST COLORADO...

CITY           SKY/WX    TMP DP  RH WIND       PRES   REMARKS
GREELEY ARPT   MOSUNNY   66  41  39 CALM      29.90F
AKRON          PTSUNNY   73  40  30 S16G28    29.91F
BURLINGTON     SUNNY     73  40  30 S28G38    29.97F
WRAY           MOSUNNY   74  38  26 S20G29    29.93F
STERLING       NOT AVBL
HOLYOKE        NOT AVBL
FORT MORGAN    NOT AVBL
$$

COZ086-089-092>099-221900-
...SOUTHEAST COLORADO...

CITY           SKY/WX    TMP DP  RH WIND       PRES   REMARKS
PUEBLO         MOSUNNY   72  38  29 VRB3      29.95F
LA JUNTA       SUNNY     79  41  25 W15G25    29.93F
LAMAR          MOSUNNY   82  44  26 SW28G33   29.91F
SPRINGFIELD      N/A     73  44  35 SW26G40   30.01F
$$



USA.gov is the U.S. government's official web portal to all federal, state and local government web resources and services.